Tracking 19279 objects as of 13-Nov-2018
HD Live streaming from Space Station
objects crossing your sky now

FLOCK 3P 51

Track FLOCK 3P 51 now!
10-day predictions
FLOCK 3P 51 is classified as:


NORAD ID: 41952
Int'l Code: 2017-008E
Perigee: 493.3 km
Apogee: 503.7 km
Inclination: 97.4 °
Period: 94.4 minutes
Semi major axis: 6869 km
RCS: Unknown
Launch date: February 15, 2017
Source: United States (US)
Launch site: SRIHARIKOTA (SRI)
aabbcc
Your satellite tracking list
Your tracking list is empty




NASA's NSSDC Master Catalog

Two Line Element Set (TLE):
1 41952U 17008E   18315.85670364 +.00001188 +00000-0 +50762-4 0  9996
2 41952 097.4349 019.8690 0007534 198.6937 161.4025 15.24811388096616
Source of the keplerian elements: AFSPC